QPF
0.06 0.07 0.09 0.14 0.15 0.14 0.15 0.15 0.17 0.15 0.13 0.09 0.06 0.04 0.03 0.03 0.03 0.03 0.02 0.01 0.00 0.00 0.00 0.00 0.00 0.00 0.00 0.00 0.00 0.00 0.00 0.00 0.00 0.00 0.00 0.00 0.00 0.00 0.00 0.00 0.00 0.00 0.01
0.04 0.05 0.06 0.11 0.14 0.13 0.11 0.12 0.13 0.12 0.10 0.09 0.07 0.03 0.02 0.02 0.02 0.01 0.01 0.00 0.00 0.00 0.00 0.00 0.00 0.00 0.00 0.00 0.00 0.00 0.00 0.00 0.00 0.00 0.00 0.00 0.00 0.00 0.00 0.00 0.00 0.00 0.00
0.02 0.04 0.06 0.07 0.09 0.11 0.09 0.09 0.10 0.08 0.07 0.06 0.04 0.02 0.02 0.01 0.01 0.01 0.00 0.00 0.00 0.00 0.00 0.00 0.00 0.00 0.00 0.00 0.00 0.00 0.00 0.00 0.00 0.00 0.00 0.00 0.00 0.00 0.00 0.00 0.00 0.00 0.00
0.02 0.03 0.04 0.05 0.06 0.08 0.06 0.07 0.08 0.06 0.05 0.03 0.02 0.03 0.02 0.02 0.01 0.00 0.00 0.00 0.00 0.00 0.00 0.00 0.00 0.00 0.00 0.00 0.00 0.00 0.00 0.00 0.00 0.00 0.00 0.00 0.00 0.00 0.00 0.00 0.00 0.00 0.00
0.01 0.01 0.03 0.04 0.03 0.04 0.04 0.05 0.07 0.06 0.04 0.02 0.02 0.03 0.01 0.01 0.00 0.00 0.00 0.00 0.00 0.00 0.00 0.00 0.00 0.00 0.00 0.00 0.00 0.00 0.00 0.00 0.00 0.00 0.00 0.00 0.00 0.00 0.00 0.00 0.00 0.00 0.00
0.00 0.02 0.03 0.03 0.03 0.03 0.03 0.03 0.05 0.04 0.02 0.01 0.01 0.01 0.01 0.01 0.00 0.00 0.00 0.00 0.00 0.00 0.00 0.00 0.00 0.00 0.00 0.00 0.00 0.00 0.00 0.00 0.00 0.00 0.00 0.00 0.00 0.00 0.00 0.00 0.00 0.00 0.00
0.00 0.01 0.01 0.02 0.02 0.01 0.01 0.01 0.03 0.02 0.02 0.01 0.01 0.01 0.01 0.01 0.00 0.00 0.00 0.00 0.00 0.00 0.00 0.00 0.00 0.00 0.00 0.00 0.00 0.00 0.00 0.00 0.00 0.00 0.00 0.00 0.00 0.00 0.00 0.00 0.00 0.00 0.00
0.00 0.00 0.00 0.01 0.01 0.01 0.01 0.01 0.01 0.02 0.01 0.01 0.01 0.01 0.01 0.00 0.00 0.00 0.00 0.00 0.00 0.00 0.00 0.00 0.00 0.00 0.00 0.00 0.00 0.00 0.00 0.00 0.00 0.00 0.00 0.00 0.00 0.00 0.00 0.00 0.00 0.00 0.00
0.00 0.00 0.00 0.00 0.00 0.00 0.01 0.01 0.02 0.02 0.02 0.01 0.01 0.01 0.00 0.00 0.00 0.00 0.00 0.00 0.00 0.00 0.00 0.00 0.00 0.00 0.00 0.00 0.00 0.00 0.00 0.00 0.00 0.00 0.00 0.00 0.00 0.00 0.00 0.00 0.00 0.00 0.00
0.00 0.00 0.00 0.00 0.00 0.00 0.00 0.01 0.01 0.01 0.01 0.01 0.01 0.00 0.00 0.00 0.00 0.00 0.00 0.00 0.00 0.00 0.00 0.00 0.00 0.00 0.00 0.00 0.00 0.00 0.00 0.00 0.00 0.00 0.00 0.00 0.00 0.00 0.00 0.00 0.00 0.00 0.00
0.00 0.00 0.00 0.00 0.00 0.00 0.00 0.00 0.00 0.00 0.01 0.00 0.00 0.00 0.00 0.00 0.00 0.00 0.00 0.00 0.00 0.00 0.00 0.00 0.00 0.00 0.00 0.00 0.00 0.00 0.00 0.00 0.00 0.00 0.00 0.00 0.01 0.01 0.00 0.00 0.00 0.00 0.00
0.00 0.00 0.00 0.00 0.00 0.00 0.00 0.00 0.00 0.00 0.00 0.00 0.00 0.00 0.01 0.00 0.00 0.00 0.00 0.00 0.00 0.00 0.00 0.00 0.00 0.00 0.00 0.00 0.00 0.00 0.00 0.00 0.00 0.00 0.00 0.00 0.00 0.01 0.00 0.00 0.00 0.00 0.01
0.00 0.00 0.00 0.00 0.00 0.00 0.00 0.00 0.00 0.00 0.00 0.00 0.00 0.01 0.01 0.00 0.00 0.00 0.00 0.00 0.01 0.01 0.00 0.00 0.00 0.00 0.00 0.00 0.00 0.00 0.00 0.00 0.00 0.00 0.00 0.00 0.00 0.00 0.01 0.01 0.00 0.00 0.00
0.00 0.00 0.00 0.00 0.00 0.00 0.01 0.01 0.01 0.01 0.01 0.01 0.01 0.01 0.01 0.01 0.01 0.01 0.01 0.01 0.01 0.01 0.01 0.00 0.00 0.00 0.00 0.00 0.00 0.00 0.00 0.00 0.00 0.00 0.00 0.00 0.00 0.00 0.01 0.01 0.01 0.01 0.00
0.00 0.01 0.01 0.00 0.00 0.00 0.01 0.01 0.01 0.01 0.01 0.01 0.01 0.01 0.01 0.02 0.02 0.02 0.02 0.02 0.01 0.01 0.01 0.01 0.00 0.00 0.00 0.00 0.00 0.00 0.00 0.00 0.00 0.00 0.00 0.00 0.00 0.00 0.00 0.00 0.00 0.00 0.01
0.00 0.00 0.00 0.00 0.00 0.01 0.01 0.01 0.01 0.01 0.01 0.01 0.01 0.01 0.01 0.01 0.01 0.01 0.01 0.01 0.01 0.01 0.01 0.01 0.01 0.00 0.00 0.00 0.00 0.00 0.00 0.00 0.00 0.00 0.00 0.00 0.00 0.00 0.00 0.00 0.00 0.00 0.01
0.01 0.01 0.01 0.01 0.01 0.01 0.01 0.01 0.01 0.01 0.01 0.01 0.01 0.01 0.01 0.01 0.01 0.01 0.01 0.01 0.01 0.01 0.01 0.01 0.01 0.00 0.00 0.01 0.01 0.00 0.00 0.00 0.00 0.00 0.00 0.00 0.00 0.00 0.00 0.00 0.00 0.00 0.00
0.01 0.01 0.01 0.01 0.01 0.01 0.01 0.01 0.01 0.01 0.01 0.01 0.01 0.01 0.00 0.00 0.00 0.00 0.00 0.00 0.01 0.01 0.01 0.00 0.01 0.01 0.01 0.01 0.01 0.01 0.01 0.00 0.00 0.00 0.00 0.00 0.00 0.00 0.00 0.00 0.00 0.00 0.00
0.01 0.01 0.01 0.01 0.01 0.01 0.01 0.01 0.01 0.01 0.01 0.01 0.01 0.01 0.01 0.00 0.00 0.00 0.00 0.00 0.00 0.00 0.00 0.00 0.00 0.00 0.00 0.01 0.00 0.01 0.00 0.00 0.00 0.00 0.00 0.00 0.00 0.00 0.00 0.00 0.01 0.01 0.00
0.01 0.01 0.01 0.01 0.01 0.01 0.01 0.01 0.01 0.01 0.01 0.01 0.01 0.01 0.01 0.01 0.01 0.01 0.00 0.00 0.00 0.00 0.00 0.00 0.00 0.00 0.00 0.01 0.01 0.01 0.00 0.00 0.00 0.00 0.00 0.00 0.00 0.00 0.00 0.00 0.00 0.00 0.00
0.02 0.02 0.01 0.01 0.01 0.01 0.01 0.01 0.01 0.01 0.02 0.02 0.02 0.01 0.01 0.01 0.01 0.01 0.01 0.01 0.00 0.00 0.00 0.00 0.00 0.00 0.01 0.01 0.01 0.00 0.00 0.00 0.00 0.00 0.00 0.00 0.00 0.00 0.00 0.00 0.00 0.00 0.00
0.02 0.02 0.02 0.01 0.01 0.01 0.01 0.01 0.01 0.01 0.02 0.02 0.02 0.02 0.01 0.01 0.01 0.01 0.00 0.00 0.00 0.00 0.00 0.00 0.00 0.00 0.00 0.00 0.00 0.00 0.00 0.00 0.00 0.00 0.00 0.00 0.00 0.00 0.00 0.00 0.00 0.00 0.00
0.02 0.02 0.02 0.02 0.02 0.02 0.02 0.02 0.02 0.03 0.02 0.02 0.02 0.02 0.02 0.01 0.01 0.01 0.01 0.00 0.00 0.00 0.00 0.01 0.01 0.01 0.01 0.01 0.01 0.01 0.01 0.01 0.00 0.00 0.00 0.00 0.00 0.00 0.00 0.00 0.00 0.00 0.00
0.01 0.02 0.02 0.02 0.02 0.02 0.03 0.03 0.03 0.03 0.03 0.02 0.02 0.01 0.01 0.01 0.01 0.01 0.01 0.01 0.01 0.01 0.01 0.01 0.01 0.01 0.01 0.01 0.01 0.01 0.01 0.01 0.01 0.01 0.01 0.01 0.01 0.01 0.00 0.00 0.01 0.01 0.01
0.01 0.01 0.01 0.01 0.02 0.02 0.02 0.03 0.02 0.02 0.02 0.02 0.02 0.02 0.01 0.01 0.01 0.01 0.01 0.01 0.00 0.01 0.01 0.01 0.01 0.02 0.01 0.01 0.01 0.01 0.00 0.01 0.01 0.01 0.01 0.01 0.01 0.01 0.01 0.01 0.01 0.01 0.01
0.01 0.01 0.01 0.01 0.00 0.01 0.01 0.01 0.02 0.02 0.02 0.01 0.01 0.01 0.01 0.01 0.01 0.01 0.01 0.01 0.01 0.01 0.01 0.02 0.02 0.02 0.01 0.01 0.01 0.00 0.00 0.00 0.00 0.00 0.00 0.01 0.01 0.02 0.03 0.03 0.03 0.03 0.03
MSLP
1013.17 1013.57 1013.91 1014.22 1014.52 1014.81 1015.12 1015.46 1015.83 1016.21 1016.58 1016.93 1017.25 1017.55 1017.83 1018.11 1018.41 1018.73 1019.10 1019.48 1019.86 1020.20 1020.47 1020.66 1020.75 1020.74 1020.66 1020.53 1020.39 1020.24 1020.13 1020.04 1019.97 1019.92 1019.86 1019.78 1019.68 1019.56 1019.42 1019.29 1019.18 1019.09 1019.03
1013.24 1013.70 1014.10 1014.44 1014.74 1015.03 1015.34 1015.67 1016.04 1016.43 1016.81 1017.17 1017.49 1017.77 1018.01 1018.23 1018.46 1018.72 1019.03 1019.37 1019.73 1020.09 1020.41 1020.66 1020.82 1020.88 1020.86 1020.78 1020.66 1020.53 1020.41 1020.32 1020.24 1020.17 1020.10 1020.02 1019.92 1019.79 1019.64 1019.48 1019.32 1019.18 1019.07
1013.16 1013.69 1014.14 1014.52 1014.84 1015.15 1015.46 1015.80 1016.19 1016.59 1017.00 1017.38 1017.70 1017.97 1018.18 1018.35 1018.52 1018.71 1018.94 1019.23 1019.57 1019.92 1020.27 1020.57 1020.80 1020.93 1020.98 1020.96 1020.88 1020.77 1020.66 1020.55 1020.47 1020.40 1020.33 1020.25 1020.15 1020.01 1019.85 1019.68 1019.50 1019.33 1019.17
1012.91 1013.49 1013.99 1014.41 1014.77 1015.10 1015.43 1015.80 1016.21 1016.65 1017.09 1017.49 1017.83 1018.10 1018.29 1018.42 1018.54 1018.66 1018.84 1019.08 1019.37 1019.72 1020.08 1020.42 1020.70 1020.90 1021.02 1021.05 1021.01 1020.93 1020.84 1020.75 1020.67 1020.60 1020.53 1020.45 1020.35 1020.23 1020.08 1019.90 1019.71 1019.51 1019.33
1012.49 1013.12 1013.67 1014.13 1014.52 1014.88 1015.25 1015.65 1016.09 1016.56 1017.03 1017.47 1017.84 1018.11 1018.30 1018.42 1018.49 1018.58 1018.70 1018.89 1019.16 1019.49 1019.85 1020.22 1020.54 1020.80 1020.97 1021.05 1021.07 1021.03 1020.96 1020.89 1020.82 1020.76 1020.70 1020.63 1020.54 1020.42 1020.27 1020.10 1019.90 1019.70 1019.51
1011.97 1012.62 1013.20 1013.69 1014.12 1014.51 1014.91 1015.34 1015.80 1016.30 1016.81 1017.28 1017.67 1017.97 1018.18 1018.30 1018.36 1018.43 1018.53 1018.69 1018.93 1019.24 1019.61 1019.98 1020.33 1020.62 1020.84 1020.97 1021.03 1021.03 1021.00 1020.95 1020.90 1020.85 1020.80 1020.75 1020.67 1020.57 1020.43 1020.26 1020.07 1019.87 1019.66
1011.40 1012.05 1012.64 1013.16 1013.61 1014.03 1014.45 1014.89 1015.38 1015.90 1016.42 1016.92 1017.34 1017.67 1017.91 1018.05 1018.14 1018.21 1018.31 1018.46 1018.70 1019.00 1019.35 1019.73 1020.09 1020.40 1020.65 1020.81 1020.90 1020.94 1020.93 1020.91 1020.89 1020.86 1020.83 1020.79 1020.73 1020.64 1020.52 1020.36 1020.17 1019.97 1019.76
1010.83 1011.46 1012.05 1012.58 1013.04 1013.47 1013.91 1014.36 1014.85 1015.38 1015.91 1016.42 1016.86 1017.23 1017.50 1017.69 1017.82 1017.93 1018.05 1018.22 1018.46 1018.76 1019.10 1019.47 1019.83 1020.14 1020.39 1020.57 1020.68 1020.74 1020.77 1020.77 1020.77 1020.77 1020.76 1020.74 1020.70 1020.63 1020.52 1020.37 1020.19 1019.99 1019.78
1010.30 1010.90 1011.47 1011.98 1012.46 1012.89 1013.33 1013.78 1014.26 1014.78 1015.30 1015.81 1016.28 1016.67 1016.99 1017.24 1017.43 1017.59 1017.77 1017.97 1018.22 1018.53 1018.86 1019.21 1019.54 1019.84 1020.08 1020.26 1020.38 1020.45 1020.50 1020.53 1020.55 1020.58 1020.60 1020.60 1020.58 1020.53 1020.43 1020.29 1020.12 1019.92 1019.71
1009.82 1010.37 1010.91 1011.41 1011.87 1012.30 1012.72 1013.16 1013.63 1014.12 1014.64 1015.14 1015.62 1016.04 1016.41 1016.72 1016.97 1017.21 1017.45 1017.70 1017.98 1018.29 1018.62 1018.95 1019.26 1019.52 1019.73 1019.90 1020.01 1020.09 1020.15 1020.20 1020.25 1020.30 1020.34 1020.37 1020.38 1020.34 1020.27 1020.15 1019.99 1019.79 1019.58
1009.38 1009.87 1010.36 1010.84 1011.28 1011.70 1012.11 1012.53 1012.98 1013.45 1013.94 1014.44 1014.92 1015.37 1015.78 1016.15 1016.48 1016.79 1017.10 1017.41 1017.72 1018.05 1018.37 1018.67 1018.95 1019.18 1019.36 1019.50 1019.60 1019.68 1019.74 1019.81 1019.88 1019.96 1020.03 1020.08 1020.11 1020.10 1020.05 1019.95 1019.80 1019.62 1019.41
1008.98 1009.40 1009.84 1010.27 1010.68 1011.07 1011.47 1011.88 1012.31 1012.76 1013.24 1013.73 1014.21 1014.68 1015.13 1015.55 1015.95 1016.33 1016.70 1017.06 1017.42 1017.76 1018.08 1018.37 1018.62 1018.82 1018.97 1019.09 1019.17 1019.25 1019.32 1019.40 1019.49 1019.59 1019.68 1019.76 1019.81 1019.82 1019.79 1019.71 1019.59 1019.43 1019.23
1008.62 1008.96 1009.33 1009.70 1010.07 1010.44 1010.82 1011.21 1011.63 1012.07 1012.54 1013.02 1013.51 1013.99 1014.46 1014.92 1015.37 1015.81 1016.23 1016.64 1017.03 1017.40 1017.73 1018.01 1018.24 1018.43 1018.57 1018.66 1018.74 1018.82 1018.90 1018.98 1019.09 1019.20 1019.31 1019.40 1019.47 1019.50 1019.49 1019.44 1019.35 1019.22 1019.05
1008.34 1008.58 1008.85 1009.15 1009.47 1009.80 1010.16 1010.54 1010.95 1011.39 1011.84 1012.32 1012.80 1013.28 1013.77 1014.26 1014.73 1015.21 1015.67 1016.12 1016.55 1016.94 1017.29 1017.58 1017.82 1017.99 1018.13 1018.23 1018.32 1018.39 1018.48 1018.58 1018.68 1018.80 1018.91 1019.01 1019.09 1019.14 1019.15 1019.12 1019.06 1018.97 1018.84
1008.16 1008.29 1008.47 1008.68 1008.93 1009.22 1009.55 1009.91 1010.31 1010.73 1011.18 1011.64 1012.11 1012.58 1013.06 1013.55 1014.04 1014.53 1015.02 1015.49 1015.95 1016.37 1016.74 1017.05 1017.31 1017.51 1017.66 1017.78 1017.87 1017.96 1018.05 1018.16 1018.26 1018.37 1018.48 1018.58 1018.65 1018.70 1018.72 1018.72 1018.69 1018.63 1018.55
1008.16 1008.17 1008.22 1008.34 1008.51 1008.74 1009.03 1009.36 1009.74 1010.15 1010.58 1011.01 1011.45 1011.90 1012.35 1012.82 1013.29 1013.78 1014.28 1014.77 1015.24 1015.68 1016.09 1016.43 1016.72 1016.96 1017.14 1017.29 1017.41 1017.51 1017.61 1017.71 1017.80 1017.90 1017.99 1018.07 1018.12 1018.17 1018.19 1018.20 1018.20 1018.18 1018.15
1008.34 1008.23 1008.17 1008.18 1008.27 1008.43 1008.67 1008.97 1009.31 1009.69 1010.08 1010.47 1010.87 1011.27 1011.67 1012.09 1012.53 1013.00 1013.47 1013.96 1014.45 1014.91 1015.35 1015.73 1016.07 1016.35 1016.57 1016.75 1016.90 1017.02 1017.12 1017.21 1017.29 1017.36 1017.42 1017.47 1017.50 1017.53 1017.54 1017.55 1017.57 1017.58 1017.59
1008.72 1008.51 1008.34 1008.26 1008.26 1008.35 1008.53 1008.78 1009.08 1009.41 1009.74 1010.08 1010.41 1010.74 1011.08 1011.43 1011.82 1012.23 1012.67 1013.15 1013.63 1014.11 1014.58 1015.00 1015.37 1015.69 1015.96 1016.17 1016.34 1016.47 1016.58 1016.65 1016.71 1016.74 1016.77 1016.78 1016.78 1016.78 1016.78 1016.78 1016.80 1016.83 1016.85
1009.24 1008.97 1008.72 1008.56 1008.49 1008.52 1008.64 1008.83 1009.08 1009.34 1009.61 1009.88 1010.12 1010.37 1010.62 1010.89 1011.20 1011.55 1011.95 1012.39 1012.86 1013.34 1013.82 1014.27 1014.67 1015.03 1015.33 1015.57 1015.75 1015.88 1015.97 1016.03 1016.06 1016.06 1016.04 1016.02 1015.98 1015.95 1015.92 1015.91 1015.92 1015.95 1015.98
1009.86 1009.54 1009.27 1009.06 1008.94 1008.92 1009.00 1009.14 1009.32 1009.52 1009.71 1009.89 1010.04 1010.19 1010.34 1010.52 1010.74 1011.02 1011.36 1011.76 1012.20 1012.67 1013.15 1013.61 1014.03 1014.40 1014.71 1014.96 1015.14 1015.27 1015.34 1015.37 1015.37 1015.33 1015.28 1015.21 1015.14 1015.08 1015.03 1015.00 1014.99 1015.00 1015.02
1010.47 1010.17 1009.90 1009.69 1009.56 1009.52 1009.56 1009.66 1009.78 1009.92 1010.03 1010.12 1010.18 1010.23 1010.28 1010.37 1010.50 1010.70 1010.97 1011.32 1011.72 1012.16 1012.62 1013.06 1013.48 1013.84 1014.15 1014.39 1014.55 1014.66 1014.70 1014.70 1014.66 1014.58 1014.49 1014.39 1014.29 1014.20 1014.12 1014.06 1014.03 1014.02 1014.02
1011.03 1010.78 1010.55 1010.38 1010.27 1010.24 1010.27 1010.34 1010.43 1010.50 1010.54 1010.55 1010.52 1010.48 1010.44 1010.43 1010.48 1010.60 1010.81 1011.09 1011.44 1011.83 1012.25 1012.66 1013.05 1013.39 1013.66 1013.86 1014.00 1014.07 1014.07 1014.03 1013.94 1013.83 1013.70 1013.57 1013.44 1013.32 1013.22 1013.14 1013.08 1013.03 1013.00
1011.49 1011.32 1011.16 1011.05 1011.00 1011.01 1011.05 1011.11 1011.17 1011.20 1011.18 1011.12 1011.02 1010.90 1010.78 1010.69 1010.66 1010.71 1010.84 1011.06 1011.35 1011.69 1012.05 1012.42 1012.75 1013.04 1013.26 1013.41 1013.49 1013.51 1013.46 1013.36 1013.23 1013.08 1012.91 1012.74 1012.58 1012.43 1012.31 1012.20 1012.11 1012.04 1011.98
1011.86 1011.78 1011.71 1011.68 1011.69 1011.74 1011.81 1011.89 1011.93 1011.93 1011.87 1011.76 1011.59 1011.41 1011.23 1011.08 1010.98 1010.97 1011.04 1011.19 1011.41 1011.69 1011.99 1012.28 1012.55 1012.77 1012.93 1013.02 1013.03 1012.98 1012.87 1012.71 1012.53 1012.32 1012.11 1011.90 1011.70 1011.53 1011.37 1011.24 1011.13 1011.03 1010.94
1012.17 1012.16 1012.17 1012.22 1012.29 1012.39 1012.49 1012.58 1012.62 1012.60 1012.51 1012.36 1012.15 1011.92 1011.69 1011.49 1011.35 1011.28 1011.30 1011.40 1011.56 1011.77 1011.99 1012.22 1012.41 1012.56 1012.64 1012.65 1012.58 1012.46 1012.28 1012.05 1011.80 1011.53 1011.27 1011.01 1010.77 1010.55 1010.37 1010.21 1010.08 1009.96 1009.86
1012.46 1012.50 1012.56 1012.65 1012.77 1012.90 1013.03 1013.11 1013.15 1013.12 1013.01 1012.83 1012.59 1012.33 1012.07 1011.84 1011.66 1011.56 1011.53 1011.58 1011.68 1011.83 1011.99 1012.14 1012.26 1012.33 1012.33 1012.26 1012.12 1011.91 1011.66 1011.36 1011.03 1010.70 1010.37 1010.05 1009.77 1009.51 1009.29 1009.10 1008.95 1008.82 1008.72
Thickness
5734 5732 5732 5733 5733 5733 5733 5732 5731 5730 5729 5729 5729 5727 5725 5724 5723 5720 5717 5715 5713 5711 5710 5711 5707 5707 5707 5705 5706 5705 5705 5706 5705 5707 5707 5709 5709 5707 5706 5707 5708 5709 5708
5732 5731 5731 5731 5732 5732 5732 5731 5730 5730 5730 5730 5730 5729 5727 5726 5724 5720 5716 5714 5713 5710 5710 5707 5708 5706 5704 5702 5702 5700 5703 5704 5703 5703 5704 5703 5704 5702 5705 5704 5704 5704 5705
5735 5732 5732 5733 5733 5732 5732 5734 5732 5731 5731 5730 5730 5727 5724 5723 5722 5719 5717 5714 5712 5710 5709 5707 5707 5705 5706 5703 5700 5699 5698 5700 5701 5700 5700 5700 5700 5700 5701 5698 5699 5698 5700
5743 5739 5737 5737 5737 5737 5737 5736 5734 5732 5731 5731 5730 5727 5725 5723 5723 5721 5719 5715 5712 5710 5708 5706 5705 5704 5705 5701 5701 5699 5698 5696 5698 5697 5695 5695 5694 5692 5694 5696 5696 5695 5694
5750 5746 5745 5744 5744 5743 5741 5738 5735 5733 5732 5731 5730 5727 5726 5725 5725 5722 5717 5715 5713 5710 5709 5706 5705 5703 5703 5701 5698 5696 5695 5696 5695 5695 5694 5691 5690 5690 5688 5688 5690 5693 5693
5756 5753 5752 5750 5747 5747 5744 5741 5736 5733 5732 5731 5730 5727 5726 5724 5722 5719 5717 5715 5715 5712 5709 5707 5704 5703 5702 5699 5697 5694 5693 5692 5690 5690 5690 5689 5687 5686 5685 5684 5683 5685 5689
5760 5756 5753 5751 5749 5748 5746 5743 5738 5734 5733 5731 5729 5728 5726 5723 5720 5720 5718 5717 5717 5714 5710 5708 5704 5703 5700 5698 5696 5693 5692 5690 5687 5685 5686 5686 5684 5683 5681 5680 5680 5679 5683
5764 5760 5757 5755 5752 5750 5747 5744 5740 5737 5735 5732 5730 5728 5726 5725 5725 5721 5721 5718 5717 5716 5711 5707 5704 5702 5699 5697 5694 5694 5691 5688 5685 5684 5681 5680 5681 5679 5677 5675 5674 5674 5678
5769 5765 5762 5760 5756 5753 5750 5748 5743 5740 5737 5734 5731 5729 5727 5726 5725 5722 5719 5719 5716 5714 5710 5706 5704 5701 5698 5696 5693 5693 5688 5686 5684 5683 5680 5678 5679 5676 5674 5672 5670 5667 5666
5772 5769 5767 5764 5761 5758 5755 5751 5747 5742 5739 5736 5733 5731 5729 5726 5724 5722 5719 5717 5714 5712 5708 5706 5703 5700 5697 5694 5691 5689 5687 5683 5681 5679 5676 5674 5675 5673 5671 5669 5667 5664 5661
5774 5772 5769 5767 5764 5761 5757 5751 5748 5744 5740 5738 5735 5733 5730 5727 5724 5721 5719 5715 5713 5709 5707 5704 5702 5699 5696 5693 5689 5688 5685 5681 5679 5677 5674 5671 5669 5669 5668 5666 5664 5661 5658
5777 5775 5771 5767 5764 5761 5757 5753 5750 5746 5743 5741 5736 5733 5730 5726 5723 5721 5718 5715 5711 5708 5705 5703 5700 5697 5695 5691 5688 5684 5683 5679 5677 5675 5672 5669 5667 5664 5662 5661 5660 5658 5655
5776 5774 5770 5766 5762 5760 5757 5755 5751 5748 5746 5742 5737 5733 5729 5726 5723 5721 5717 5714 5710 5706 5704 5700 5697 5695 5693 5689 5686 5683 5680 5677 5675 5672 5669 5667 5664 5660 5660 5657 5656 5655 5654
5773 5771 5768 5765 5762 5760 5757 5754 5751 5750 5746 5742 5737 5733 5730 5727 5724 5720 5716 5712 5708 5704 5701 5698 5695 5693 5690 5687 5684 5681 5678 5675 5672 5669 5667 5664 5662 5658 5655 5653 5650 5649 5647
5770 5769 5767 5764 5761 5758 5755 5753 5750 5748 5745 5740 5735 5732 5729 5726 5722 5718 5714 5710 5706 5703 5699 5696 5693 5690 5688 5686 5682 5678 5675 5672 5669 5666 5664 5662 5659 5655 5651 5650 5649 5645 5642
5767 5767 5765 5763 5759 5756 5754 5751 5748 5745 5741 5736 5733 5730 5727 5722 5719 5715 5711 5707 5704 5700 5697 5693 5690 5687 5686 5683 5676 5672 5671 5669 5666 5663 5661 5659 5655 5651 5646 5642 5640 5637 5636
5760 5761 5761 5760 5757 5756 5753 5749 5746 5743 5737 5733 5730 5727 5723 5719 5716 5713 5708 5703 5700 5696 5692 5689 5686 5684 5682 5676 5670 5665 5663 5663 5662 5660 5658 5657 5658 5651 5647 5642 5635 5632 5628
5753 5754 5756 5756 5755 5753 5751 5747 5744 5739 5734 5729 5726 5724 5720 5716 5713 5708 5704 5699 5696 5692 5689 5686 5683 5681 5678 5672 5666 5660 5657 5658 5658 5657 5655 5652 5651 5649 5644 5640 5638 5635 5632
5745 5747 5750 5751 5749 5747 5745 5742 5737 5733 5729 5725 5721 5719 5716 5712 5707 5703 5698 5695 5691 5688 5685 5682 5679 5676 5674 5668 5661 5654 5655 5656 5655 5654 5653 5650 5647 5643 5636 5632 5631 5630 5630
5736 5738 5740 5740 5738 5737 5736 5732 5728 5723 5720 5718 5715 5713 5709 5705 5701 5697 5693 5690 5685 5682 5680 5678 5675 5672 5669 5664 5656 5649 5651 5652 5652 5652 5650 5645 5642 5638 5631 5627 5626 5624 5624
5722 5724 5724 5723 5722 5722 5722 5718 5715 5711 5710 5709 5706 5703 5699 5696 5693 5690 5686 5683 5679 5676 5673 5671 5669 5666 5663 5658 5651 5644 5643 5645 5646 5647 5647 5646 5640 5632 5626 5620 5620 5620 5617
5707 5707 5707 5706 5707 5706 5706 5704 5700 5699 5698 5697 5694 5691 5689 5686 5684 5680 5676 5674 5671 5667 5665 5662 5660 5660 5657 5652 5646 5639 5634 5633 5633 5635 5637 5637 5631 5624 5619 5614 5613 5609 5604
5693 5693 5693 5691 5690 5689 5689 5687 5685 5685 5685 5684 5682 5680 5678 5675 5673 5670 5667 5664 5661 5660 5658 5656 5654 5652 5651 5647 5638 5632 5628 5623 5621 5625 5625 5621 5616 5612 5610 5607 5604 5599 5598
5679 5679 5678 5676 5673 5674 5674 5672 5672 5672 5672 5670 5668 5667 5666 5663 5660 5658 5658 5655 5653 5650 5648 5646 5644 5642 5640 5636 5632 5628 5623 5616 5613 5613 5614 5609 5606 5603 5602 5602 5599 5596 5597
5666 5666 5665 5663 5661 5661 5661 5660 5660 5659 5658 5657 5656 5655 5655 5653 5649 5647 5645 5643 5640 5637 5632 5631 5629 5627 5625 5620 5611 5607 5608 5606 5604 5599 5600 5602 5604 5603 5602 5601 5599 5597 5595
5653 5653 5653 5651 5650 5649 5648 5647 5647 5646 5645 5644 5644 5644 5643 5640 5639 5636 5634 5629 5625 5620 5616 5612 5608 5609 5604 5600 5595 5591 5588 5585 5580 5579 5588 5593 5595 5596 5595 5594 5593 5592 5591